Location: Newark
(35.6799°N, 139.7636°E)
Time: 19:46:00
(UTC+00:00)

Courier 1B Rocket - Pass Details

Date: 10 December 2019
Orbit: 920 x 1202 km, 28.2° (Epoch: 28 January)

Event Time Altitude Azimuth Distance (km) Brightness Sun altitude
Exits shadow 18:39:28 11° 180° (S) 2,869 7.5 -35.8°
Maximum altitude 18:42:36 14° 153° (SSE) 2,580 7.5 -35.2°
Drops below altitude 10° 18:46:01 10° 123° (ESE) 2,833 8.1 -34.5°
Sets 18:50:06 0° 100° (E) 3,723 9.1 -33.7°
